Flag for Canada Weather past 2 weeks in Wood Buffalo, Alberta, Canada

Now
67 °F

Mild.


Feels Like: 67 °F
Forecast: 55 / 81 °F
Wind: 7 mph from Northeast

Location: Fort McMurray CS

Current Time: May 23, 2015 at 12:24:15 AM

Latest Report: May 22, 2015 at 11:00 PM


Visibility: N/A

Pressure: 30.00 "Hg

Humidity: 26%

Dew point: 31 °F

Location of Wood BuffaloLocation

Historic Weather in Wood Buffalo — Graph

°F

Wood Buffalo temperature yesterday

Maximum temperature yesterday: 82 °F (at 4:00 PM)
Minimum temperature yesterday: 40 °F (at 5:00 AM)
Average temperature yesterday: 66 °F

Past Weeks' High & Low Weather Summary

 TemperatureHumidityPressure
High82 °F (May 22, 4:00 PM)100% (May 9, 5:00 AM)30.54 "Hg (May 9, 5:00 AM)
Low26 °F (May 17, 3:00 AM)11% (May 19, 2:00 PM)29.72 "Hg (May 15, 8:00 PM)
Average53 °F40%30.13 "Hg
* Reported May 7 11:00 PM — May 22 11:00 PM, Wood Buffalo, Weather by CustomWeather, © 2015

Note: Actual official high and low records may vary slightly from our data, if they occured in-between our weather recording intervals... More about our weather records

Advertising

Wood Buffalo weather history for previous 24 hours

 ConditionsComfort  
Time TempWeatherWind HumidityBarometerVisibility
11:00 PM
Fri, May 22
67 °FMild.7 mph26%30.00 "HgN/A
10:00 PM70 °FMild.6 mph22%29.98 "HgN/A
9:00 PM75 °FMild.13 mph17%29.95 "HgN/A
8:00 PM78 °FPleasantly warm.14 mph16%29.93 "HgN/A
7:00 PM80 °FPleasantly warm.12 mph16%29.93 "HgN/A
6:00 PM80 °FPleasantly warm.12 mph14%29.93 "HgN/A
5:00 PM81 °FPleasantly warm.12 mph14%29.94 "HgN/A
4:00 PM82 °FPleasantly warm.12 mph14%29.92 "HgN/A
3:00 PM80 °FPleasantly warm.6 mph14%29.91 "HgN/A
2:00 PM81 °FPleasantly warm.13 mph13%29.91 "HgN/A
1:00 PM80 °FPleasantly warm.9 mph17%29.90 "HgN/A
12:00 PM77 °FPleasantly warm.3 mph18%29.91 "HgN/A
11:00 AM73 °FMild.3 mph21%29.91 "HgN/A
10:00 AM69 °FMild.5 mph24%29.92 "HgN/A
9:00 AM62 °FMild.1 mph33%29.91 "HgN/A
8:00 AM58 °FRefreshingly cool.2 mph35%29.90 "HgN/A
7:00 AM52 °FCool.2 mph44%29.90 "HgN/A
6:00 AM43 °FQuite cool.6 mph61%29.91 "HgN/A
5:00 AM40 °FQuite cool.3 mph65%29.92 "HgN/A
4:00 AM45 °FQuite cool.1 mph61%29.90 "HgN/A
3:00 AM53 °FCool.3 mph38%29.89 "HgN/A
2:00 AM53 °FCool.1 mph41%29.88 "HgN/A
1:00 AM56 °FRefreshingly cool.2 mph34%29.87 "HgN/A
12:00 AM57 °FRefreshingly cool.2 mph33%29.86 "HgN/A
Weather by CustomWeather, © 2015

See weather overviewHow to use our weather pages